Flag for United Kingdom Weather past 2 weeks in Stafford, England, United Kingdom

Now
32 °F

Passing clouds.


Feels Like: 27 °F
Forecast: N/A
Wind: 5 mph from North

Location: Shawbury

Current Time: Dec 27, 2014 at 7:33:08 PM

Latest Report: Dec 27, 2014 at 6:50 PM


Visibility: N/A

Pressure: 29.89 "Hg

Humidity: 100%

Dew point: 32 °F

Location of StaffordLocation

Historic Weather in Stafford — Graph

°F

Stafford temperature yesterday

Maximum temperature yesterday: 39 °F (at 11:50 AM)
Minimum temperature yesterday: 32 °F (at 3:50 AM)
Average temperature yesterday: 35 °F

Past Weeks' High & Low Weather Summary

 TemperatureHumidityPressure
High55 °F (Dec 18, 1:50 AM)100% (Dec 19, 1:50 AM)30.48 "Hg (Dec 19, 1:50 AM)
Low32 °F (Dec 12, 5:50 PM)57% (Dec 24, 11:50 AM)29.50 "Hg (Dec 12, 5:50 PM)
Average45 °F83%29.93 "Hg
* Reported Dec 12 5:50 PM — Dec 27 5:50 PM, Stafford, Weather by CustomWeather, © 2014

Note: Actual official high and low records may vary slightly from our data, if they occured in-between our weather recording intervals... More about our weather records

Advertising

Stafford weather history for previous 24 hours

 ConditionsComfort  
Time TempWeatherWind HumidityBarometerVisibility
5:50 PM
Dec 27
34 °FPartly cloudy.6 mph93%29.86 "HgN/A
4:50 PM34 °FFog.3 mph93%29.83 "Hg6 mi
3:50 PM36 °FRain showers. Partly sunny.9 mph93%29.83 "Hg3 mi
2:50 PM36 °FLight rain. Scattered clouds.10 mph93%29.80 "HgN/A
1:50 PM36 °FRain showers. Broken clouds.14 mph93%29.80 "HgN/A
12:50 PM36 °FBroken clouds.8 mph93%29.80 "HgN/A
11:50 AM36 °FPartly sunny.10 mph93%29.83 "HgN/A
10:50 AM36 °FSprinkles. Broken clouds.6 mph93%29.83 "HgN/A
9:50 AM34 °FLight rain. Partly sunny.8 mph93%29.83 "Hg4 mi
8:50 AM36 °FScattered clouds.8 mph93%29.83 "HgN/A
7:50 AM36 °FSprinkles. Passing clouds.7 mph93%29.83 "Hg6 mi
6:50 AM36 °FChilly.10 mph93%29.83 "HgN/A
5:50 AM34 °FChilly.7 mph93%29.83 "HgN/A
4:50 AM36 °FChilly.9 mph93%29.83 "HgN/A
3:50 AM34 °FChilly.8 mph93%29.83 "HgN/A
2:50 AM36 °FChilly.12 mph87%29.83 "HgN/A
1:50 AM36 °FPassing clouds.15 mph93%29.80 "HgN/A
12:50 AM34 °FPartly cloudy.18 mph93%29.80 "Hg4 mi
11:50 PM
Dec 26
34 °FPassing clouds.16 mph93%29.77 "HgN/A
10:50 PM34 °FLight rain. Low clouds.17 mph93%29.74 "Hg4 mi
9:50 PM34 °FLight snow. Low clouds.12 mph93%29.71 "Hg2 mi
8:50 PM32 °FSnow. Low clouds.9 mph100%29.68 "Hg1 mi
7:50 PM34 °FSnow showers. Low clouds.8 mph93%29.71 "Hg1 mi
Weather by CustomWeather, © 2014

See weather overviewHow to use our weather pages